Regional Weather Roundup
Issued by NWS

Home | Current Version | Previous Version | Text Only | Print | Product List | Glossary On
Versions: 1 2 3 4 5 6 7 8 9 10 11 12 13 14 15 16 17 18 19 20 21 22 23 24 25 26 27 28 29 30 31 32 33 34 35 36 37 38 39 40 41 42 43 44 45 46 47 48 49 50
000
ASUS45 KPSR 031310
RWRAZ

ARIZONA HOURLY REGIONAL WEATHER ROUNDUP
NATIONAL WEATHER SERVICE PHOENIX AZ
600 AM MST MON AUG 03 2015

NOTE: FAIR INDICATES FEW OR NO CLOUDS BELOW 12,000 FEET WITH NO
SIGNIFICANT WEATHER AND/OR OBSTRUCTIONS TO VISIBILITY.

AZZ001>003-036-031400-
NORTHWEST ARIZONA

CITY           SKY/WX    TMP DP  RH WIND       PRES   REMARKS
BULLHEAD CITY  CLEAR     84  46  26 CALM      29.78R
KINGMAN        CLEAR     75  44  33 SE12      29.98R
$$

AZZ004>008-015-016-018-031400-
NORTH CENTRAL ARIZONA

CITY           SKY/WX    TMP DP  RH WIND       PRES   REMARKS
GRAND CANYON   CLEAR     47  46  97 CALM      30.24R
WILLIAMS       CLEAR     52  46  82 SE9       30.31R
PRESCOTT       PTCLDY    64  49  57 CALM      30.12R
FLAGSTAFF      CLEAR     47  46  97 SW3       30.27R
PAYSON         PTCLDY    64  52  63 CALM      30.14R
PAGE           CLEAR     66  60  81 CALM      30.08R
$$

AZZ009>014-017-031400-
NORTHEAST ARIZONA

CITY           SKY/WX    TMP DP  RH WIND       PRES   REMARKS
WINSLOW        CLEAR     59  55  87 E3        30.14R
SAINT JOHNS    CLEAR     55  53  93 CALM      30.18R
SHOW LOW       CLEAR     55  48  76 CALM      30.23R
$$

AZZ023-031400-
GREATER PHOENIX AREA

CITY           SKY/WX    TMP DP  RH WIND       PRES   REMARKS
PHOENIX        PTCLDY    87  57  35 E7        29.80R
GLENDALE       PTCLDY    84  55  37 CALM      29.82
DEER VALLEY    CLEAR     83  52  34 NE3       29.82R
SCOTTSDALE     CLEAR     87  53  31 CALM      29.84R
MESA-FALCON    PTCLDY    84  57  39 N6        29.83R
MESA-GATEWAY   CLEAR     82  54  36 E9        29.85R
CHANDLER       PTCLDY    81  57  44 NE3       29.82
$$

AZZ027-028-031400-
SOUTHWEST MARICOPA COUNTY AND PINAL COUNTY

CITY           SKY/WX    TMP DP  RH WIND       PRES   REMARKS
CASA GRANDE    CLEAR     79  61  53 CALM      29.83R
GILA BEND      FAIR      84  50  30 SE2       29.78R
$$

AZZ503-504-507>509-031400-
SOUTHEAST ARIZONA

CITY           SKY/WX    TMP DP  RH WIND       PRES   REMARKS
TUCSON         CLEAR     79  61  53 SE3       29.96R
DAVIS-MONTHAN  PTCLDY    78  60  53 S6        29.94R
NOGALES        CLEAR     66  60  81 CALM      30.05R
SIERRA VISTA   CLEAR     66  58  75 S6        30.10R
DOUGLAS          N/A    N/A N/A N/A MISG      30.06R
SAFFORD        CLEAR     69  58  67 E5        29.98R
$$

AZZ020-021-025-026-031-031400-
SOUTHWEST ARIZONA

CITY           SKY/WX    TMP DP  RH WIND       PRES   REMARKS
YUMA           CLEAR     85  56  37 CALM      29.73R
$$

CAZ031-033-041-043-047-048-061-031400-
SOUTHERN CALIFORNIA

CITY           SKY/WX    TMP DP  RH WIND       PRES   REMARKS
DOWNTOWN L.A.  CLOUDY    68  64  87 CALM      29.88R
L.A. AIRPORT   PTCLDY    67  62  84 N3        29.89R
SAN DIEGO      CLOUDY    69  62  78 CALM      29.90R
BURBANK        PTCLDY    67  60  78 SE3       29.89R
ONTARIO        PTCLDY    65  61  87 W3        29.89R
RIVERSIDE      CLEAR     67  63  87 CALM      29.90R
PALM SPRINGS   CLEAR     81  60  48 CALM      29.76R
EL CENTRO NAS  CLEAR     79  45  29 S6        29.72R
IMPERIAL       CLEAR     82  45  27 CALM      29.70R
BLYTHE         CLEAR     84  49  29 CALM      29.74R
NEEDLES        CLEAR     87  46  24 CALM      29.78R
$$

NVZ020-UTZ003-031400-
SOUTHERN NEVADA-UTAH

CITY           SKY/WX    TMP DP  RH WIND       PRES   REMARKS
LAS VEGAS      PTCLDY    85  40  20 S8        29.82R
SALT LAKE CITY LGT RAIN  64  61  90 E10       30.06R
$$

NMZ009-TXZ055-031400-
NEW MEXICO-WEST TEXAS

CITY           SKY/WX    TMP DP  RH WIND       PRES   REMARKS
ALBUQUERQUE    PTCLDY    65  59  81 S3        30.17R
EL PASO        MOCLDY    73  63  70 CALM      30.06R
$$


........................KEY........................
SKY/WX - SKY CONDITION/WEATHER
TMP    - TEMPERATURE IN FAHRENHEIT
DP     - DEW POINT IN FAHRENHEIT
RH     - RELATIVE HUMIDITY IN PERCENT
WIND   - DIRECTION AND SPEED IN MILES PER HOUR (MPH)
VRB    - VARIABLE WIND DIRECTION
PRES   - MEAN SEA LEVEL PRESSURE IN INCHES OF MERCURY
         F - FALLING PRESSURE   R - RISING PRESSURE
         S - STEADY PRESSURE
VSB    - VISIBILITY IN MILES
HX     - HEAT INDEX IN FAHRENHEIT
WCI    - WIND CHILL INDEX IN FAHRENHEIT
TC     - TEMPERATURE IN CELSIUS WHICH IS ALSO KNOWN AS
         TEMPERATURE IN CENTIGRADE
AFB    - AIR FORCE BASE
         LUKE AFB IS LUKE AIR FORCE BASE
         DAVIS-MONTHAN IS DAVIS-MONTHAN AIR FORCE BASE
NAS    - NAVAL AIR STATION
         EL CENTRO NAS IS EL CENTRO NAVAL AIR STATION
N/A    - NOT AVAILABLE




USA.gov is the U.S. government's official web portal to all federal, state and local government web resources and services.